Tracking 35331 objects as of 16-Sep-2026
HD Live streaming from Space Station
objects crossing your sky now

STARLINK-37840

Track STARLINK-37840 now!
10-day predictions
STARLINK-37840 is classified as:


NORAD ID: 69965
Int'l Code: 2026-157Y
Launch date: July 9, 2026
Source: United States (US)
Launch site: AIR FORCE EASTERN TEST RANGE (AFETR)
Your satellite tracking list
Your tracking list is empty




NASA's NSSDC Master Catalog

Two Line Element Set (TLE):
1 69965U 26157Y   26259.26477315  .00031776  00000-0  94746-3 0  9992
2 69965  53.1603 353.4562 0001362  80.7081 279.4076 15.34404645 10720
Source of the keplerian elements: AFSPC